Location: Splawn
(30.9202°N, 96.9858°W)
Time: 12:59:54
(UTC+00:00)

Transit 2A Rocket - Pass Details

Date: 04 March 2020
Orbit: 588 x 915 km, 66.7° (Epoch: 07 April)

Event Time Altitude Azimuth Distance (km) Brightness Sun altitude
Rises 12:20:34 0° 322° (NW) 3,288 7.9 -7.2°
Reaches altitude 10° 12:23:07 10° 313° (NW) 2,407 7.1 -6.7°
Maximum altitude 12:28:03 33° 251° (WSW) 1,412 5.9 -5.6°
Drops below altitude 10° 12:33:15 10° 189° (S) 2,548 7.7 -4.5°
Sets 12:36:03 0° 180° (S) 3,509 8.5 -3.9°
